When you browse on this site, cookies collect data to enhance your experience and personalize the content and advertising you see.
Visit our Privacy Policy to learn more. By continuing to use the site, you agree to this use of cookies and data.
  • In Österreich
  • Länderverzeichnis
  • Für 7 Tage
  • Wassertemperatur
  • Satellitenkarten
  • Wetterkarte
  • News
  • Widgets
  • user-avatar
    Anmelden

    Stündliche Wetter Policko

    Heute, 21 Februar, Donnerstag

    Zeit Temperatur Niederschläge Wind Luftdruck Luftfeuchtigkeit
    00:00 +6°C° 0 mm 2 m/S 762 mmHg 87%
    01:00 +5°C° 0 mm 2 m/S 762 mmHg 91%
    02:00 +5°C° 0 mm 2 m/S 762 mmHg 90%
    03:00 +4°C° 0 mm 3 m/S 762 mmHg 88%
    04:00 +4°C° 0 mm 3 m/S 761 mmHg 87%
    05:00 +4°C° 0 mm 3 m/S 761 mmHg 87%
    06:00 +4°C° 0 mm 3 m/S 761 mmHg 86%
    07:00 +5°C° 0 mm 4 m/S 761 mmHg 84%
    08:00 +5°C° 0.2 mm 4 m/S 761 mmHg 83%
    09:00 +5°C° 0.2 mm 4 m/S 761 mmHg 82%
    10:00 +6°C° 0.2 mm 4 m/S 761 mmHg 81%
    11:00 +6°C° 0.2 mm 5 m/S 761 mmHg 80%
    12:00 +7°C° 0.2 mm 5 m/S 761 mmHg 78%
    13:00 +7°C° 0 mm 6 m/S 761 mmHg 78%
    14:00 +7°C° 0.1 mm 5 m/S 760 mmHg 78%
    15:00 +7°C° 0.1 mm 5 m/S 760 mmHg 78%
    16:00 +8°C° 0.1 mm 4 m/S 760 mmHg 78%
    17:00 +7°C° 0.2 mm 5 m/S 760 mmHg 80%
    18:00 +7°C° 0.2 mm 5 m/S 760 mmHg 83%
    19:00 +7°C° 0.2 mm 5 m/S 760 mmHg 86%
    20:00 +7°C° 0.3 mm 5 m/S 760 mmHg 87%
    21:00 +7°C° 0.3 mm 4 m/S 760 mmHg 89%
    22:00 +7°C° 0.3 mm 4 m/S 760 mmHg 90%
    23:00 +7°C° 0.1 mm 4 m/S 761 mmHg 90%

    Morgen, 22 Februar, Freitag

    Zeit Temperatur Niederschläge Wind Luftdruck Luftfeuchtigkeit
    00:00 +7°C° 0.1 mm 5 m/S 761 mmHg 90%
    01:00 +7°C° 0.1 mm 5 m/S 762 mmHg 89%
    02:00 +5°C° 0.1 mm 5 m/S 762 mmHg 86%
    03:00 +3°C° 0.1 mm 5 m/S 763 mmHg 83%
    04:00 +2°C° 0.1 mm 6 m/S 764 mmHg 80%
    05:00 +1°C° 0 mm 6 m/S 766 mmHg 78%
    06:00 0°C° 0 mm 5 m/S 767 mmHg 75%
    07:00 -1°C° 0 mm 5 m/S 768 mmHg 72%
    08:00 -1°C° 0 mm 5 m/S 769 mmHg 65%
    09:00 -1°C° 0 mm 5 m/S 771 mmHg 58%
    10:00 -1°C° 0 mm 4 m/S 772 mmHg 51%
    11:00 0°C° 0 mm 4 m/S 772 mmHg 48%
    12:00 0°C° 0 mm 4 m/S 773 mmHg 45%
    13:00 +1°C° 0 mm 4 m/S 774 mmHg 41%
    14:00 0°C° 0 mm 4 m/S 774 mmHg 41%
    15:00 +1°C° 0 mm 3 m/S 774 mmHg 41%
    16:00 +1°C° 0 mm 3 m/S 775 mmHg 41%
    17:00 0°C° 0 mm 3 m/S 775 mmHg 45%
    18:00 -1°C° 0 mm 2 m/S 776 mmHg 49%
    19:00 -2°C° 0 mm 2 m/S 776 mmHg 53%
    20:00 -2°C° 0 mm 2 m/S 777 mmHg 53%
    21:00 -2°C° 0 mm 2 m/S 777 mmHg 52%
    22:00 -2°C° 0 mm 2 m/S 777 mmHg 52%
    23:00 -2°C° 0 mm 2 m/S 777 mmHg 52%

    übermorgen, 23 Februar, Samstag

    Zeit Temperatur Niederschläge Wind Luftdruck Luftfeuchtigkeit
    00:00 -3°C° 0 mm 2 m/S 778 mmHg 51%
    01:00 -3°C° 0 mm 2 m/S 778 mmHg 51%
    02:00 -3°C° 0 mm 2 m/S 777 mmHg 51%
    03:00 -3°C° 0 mm 2 m/S 777 mmHg 51%
    04:00 -3°C° 0 mm 2 m/S 777 mmHg 51%
    05:00 -3°C° 0 mm 2 m/S 777 mmHg 51%
    06:00 -3°C° 0 mm 2 m/S 777 mmHg 51%
    07:00 -1°C° 0 mm 1 m/S 778 mmHg 51%
    08:00 0°C° 0 mm 1 m/S 778 mmHg 46%
    09:00 +1°C° 0 mm 1 m/S 778 mmHg 40%
    10:00 -1°C° 0 mm 2 m/S 778 mmHg 35%
    11:00 +1°C° 0 mm 2 m/S 777 mmHg 32%
    12:00 +2°C° 0 mm 2 m/S 777 mmHg 29%
    13:00 +3°C° 0 mm 2 m/S 777 mmHg 27%
    14:00 +3°C° 0 mm 2 m/S 777 mmHg 27%
    15:00 +4°C° 0 mm 1 m/S 776 mmHg 28%
    16:00 +4°C° 0 mm 1 m/S 776 mmHg 29%
    17:00 +3°C° 0 mm 1 m/S 776 mmHg 32%
    18:00 +2°C° 0 mm 1 m/S 776 mmHg 34%
    19:00 +1°C° 0 mm 1 m/S 776 mmHg 37%
    20:00 +1°C° 0 mm 1 m/S 775 mmHg 38%
    21:00 +1°C° 0 mm 1 m/S 775 mmHg 38%
    22:00 +1°C° 0 mm 1 m/S 775 mmHg 38%
    23:00 +1°C° 0 mm 1 m/S 775 mmHg 38%

    24 Februar, Sonntag

    Zeit Temperatur Niederschläge Wind Luftdruck Luftfeuchtigkeit
    00:00 +1°C° 0 mm 1 m/S 775 mmHg 38%
    01:00 +1°C° 0 mm 1 m/S 775 mmHg 38%
    02:00 +1°C° 0 mm 1 m/S 775 mmHg 38%
    03:00 +1°C° 0 mm 1 m/S 774 mmHg 37%
    04:00 +1°C° 0 mm 1 m/S 774 mmHg 37%
    05:00 +1°C° 0 mm 1 m/S 774 mmHg 37%
    06:00 +1°C° 0 mm 1 m/S 774 mmHg 37%
    07:00 +1°C° 0 mm 1 m/S 774 mmHg 37%
    08:00 +1°C° 0 mm 2 m/S 774 mmHg 36%
    09:00 +3°C° 0 mm 2 m/S 774 mmHg 34%
    10:00 +4°C° 0 mm 2 m/S 774 mmHg 33%
    11:00 +4°C° 0 mm 3 m/S 774 mmHg 33%
    12:00 +5°C° 0 mm 3 m/S 773 mmHg 34%
    13:00 +8°C° 0 mm 3 m/S 773 mmHg 35%
    14:00 +8°C° 0 mm 3 m/S 773 mmHg 39%
    15:00 +7°C° 0 mm 3 m/S 773 mmHg 44%
    16:00 +7°C° 0 mm 2 m/S 773 mmHg 48%
    17:00 +6°C° 0 mm 2 m/S 773 mmHg 54%
    18:00 +5°C° 0 mm 2 m/S 773 mmHg 59%
    19:00 +4°C° 0 mm 2 m/S 773 mmHg 65%
    20:00 +3°C° 0 mm 2 m/S 773 mmHg 67%
    21:00 +3°C° 0 mm 2 m/S 773 mmHg 70%
    22:00 +3°C° 0 mm 2 m/S 774 mmHg 72%
    23:00 +3°C° 0 mm 2 m/S 774 mmHg 74%

    25 Februar, Montag

    Zeit Temperatur Niederschläge Wind Luftdruck Luftfeuchtigkeit
    00:00 +2°C° 0 mm 2 m/S 774 mmHg 76%
    01:00 +2°C° 0 mm 2 m/S 774 mmHg 78%
    02:00 +2°C° 0 mm 2 m/S 774 mmHg 79%
    03:00 +2°C° 0 mm 2 m/S 774 mmHg 79%
    04:00 +2°C° 0 mm 2 m/S 774 mmHg 80%
    05:00 +1°C° 0 mm 2 m/S 774 mmHg 80%
    06:00 +1°C° 0 mm 2 m/S 774 mmHg 80%
    07:00 +1°C° 0 mm 2 m/S 774 mmHg 80%
    08:00 +3°C° 0 mm 2 m/S 774 mmHg 74%
    09:00 +4°C° 0 mm 2 m/S 774 mmHg 68%
    10:00 +6°C° 0 mm 2 m/S 774 mmHg 62%
    11:00 +7°C° 0 mm 2 m/S 774 mmHg 58%
    12:00 +9°C° 0 mm 2 m/S 774 mmHg 54%
    13:00 +10°C° 0 mm 3 m/S 774 mmHg 50%
    14:00 +12°C° 0 mm 2 m/S 773 mmHg 52%
    15:00 +12°C° 0 mm 2 m/S 773 mmHg 54%
    16:00 +12°C° 0 mm 2 m/S 773 mmHg 55%
    17:00 +10°C° 0 mm 2 m/S 772 mmHg 61%
    18:00 +8°C° 0 mm 2 m/S 772 mmHg 66%
    19:00 +7°C° 0 mm 2 m/S 772 mmHg 72%
    20:00 +6°C° 0 mm 2 m/S 772 mmHg 74%
    21:00 +6°C° 0 mm 2 m/S 772 mmHg 76%
    22:00 +6°C° 0 mm 2 m/S 772 mmHg 78%
    23:00 +5°C° 0 mm 2 m/S 771 mmHg 79%

    26 Februar, Dienstag

    Zeit Temperatur Niederschläge Wind Luftdruck Luftfeuchtigkeit
    00:00 +5°C° 0 mm 2 m/S 771 mmHg 81%
    01:00 +4°C° 0 mm 3 m/S 771 mmHg 82%
    02:00 +3°C° 0 mm 3 m/S 770 mmHg 84%
    03:00 +3°C° 0 mm 3 m/S 770 mmHg 86%
    04:00 +3°C° 0 mm 3 m/S 769 mmHg 87%
    05:00 +3°C° 0 mm 3 m/S 769 mmHg 87%
    06:00 +3°C° 0 mm 3 m/S 769 mmHg 86%
    07:00 +2°C° 0 mm 3 m/S 768 mmHg 86%
    08:00 +4°C° 0 mm 4 m/S 768 mmHg 77%
    09:00 +5°C° 0 mm 4 m/S 768 mmHg 68%
    10:00 +6°C° 0 mm 4 m/S 768 mmHg 58%
    11:00 +8°C° 0 mm 4 m/S 767 mmHg 58%
    12:00 +9°C° 0 mm 5 m/S 767 mmHg 57%
    13:00 +10°C° 0 mm 5 m/S 767 mmHg 57%
    14:00 +12°C° 0 mm 5 m/S 766 mmHg 59%
    15:00 +12°C° 0 mm 5 m/S 766 mmHg 62%
    16:00 +12°C° 0 mm 5 m/S 766 mmHg 64%
    17:00 +11°C° 0 mm 4 m/S 766 mmHg 71%
    18:00 +8°C° 0 mm 4 m/S 766 mmHg 78%
    19:00 +8°C° 0 mm 3 m/S 767 mmHg 85%
    20:00 +8°C° 0 mm 3 m/S 767 mmHg 86%
    21:00 +7°C° 0 mm 3 m/S 767 mmHg 88%
    22:00 +7°C° 0 mm 3 m/S 767 mmHg 89%
    23:00 +6°C° 0 mm 2 m/S 767 mmHg 91%
    Mehr zeigen